KAR3478 VTSP-UUEE

Flight info

Callsign KAR3478
Flight time N/A
Altitude 34000
Route UPSAB1B UPSAB L515 OBMOG M770 BUBKO/N0494F360 M770 KAKID M875 JHANG/N0489F380 M875 LEBIB A466 SITAX M875 AMDAR/K0887F380 M875 MILSO M161 LOGTO/K0893F400 M161 URL M166 ARISA L736 OLOPI OLOPI3G
Aircraft B772/H-SDE2E3FGHIJ5LORVWXY/LB1D1

Departure

Time N/A
Airport Phuket International Airport (VTSP)

Arrival

Time 2026-05-05 20:07
Airport Sheremetyevo International Airport (UUEE)
Time Latitude Longitude Altitude Speed Heading
2026-05-05 15:36 34.52651 69.14374 34007 ft 439 kts 327°
2026-05-05 15:37 34.55372 69.12623 34006 ft 438 kts 327°
2026-05-05 15:37 34.60717 69.09170 34006 ft 438 kts 327°
2026-05-05 15:38 34.66106 69.05685 34005 ft 439 kts 327°
2026-05-05 15:38 34.71496 69.02195 34005 ft 438 kts 327°
2026-05-05 15:39 34.76849 68.98725 34005 ft 440 kts 327°
2026-05-05 15:39 34.82246 68.95222 34004 ft 440 kts 327°
2026-05-05 15:40 34.87671 68.91695 34001 ft 441 kts 327°
2026-05-05 15:40 34.93093 68.88166 34012 ft 440 kts 327°
2026-05-05 15:41 34.98456 68.84670 34035 ft 439 kts 327°
2026-05-05 15:41 35.03891 68.81122 34056 ft 439 kts 327°
2026-05-05 15:42 35.09251 68.77616 34062 ft 440 kts 327°
2026-05-05 15:42 35.14636 68.74090 34065 ft 439 kts 327°
2026-05-05 15:43 35.19994 68.70576 34062 ft 438 kts 327°
2026-05-05 15:43 35.24932 68.67333 34063 ft 438 kts 327°
2026-05-05 15:44 35.30338 68.63776 34062 ft 439 kts 327°
2026-05-05 15:44 35.35719 68.60231 34064 ft 438 kts 327°
2026-05-05 15:45 35.41047 68.56715 34062 ft 438 kts 327°
2026-05-05 15:45 35.46437 68.53153 34063 ft 438 kts 327°
2026-05-05 15:46 35.51785 68.49614 34059 ft 439 kts 327°
2026-05-05 15:46 35.57163 68.46049 34057 ft 438 kts 327°
2026-05-05 15:47 35.62524 68.42484 34059 ft 438 kts 327°
2026-05-05 15:47 35.67863 68.38909 34058 ft 438 kts 327°
2026-05-05 15:48 35.73195 68.35335 34059 ft 438 kts 327°
2026-05-05 15:48 35.78538 68.31748 34071 ft 438 kts 327°
2026-05-05 15:49 35.83876 68.28160 34070 ft 437 kts 327°
2026-05-05 15:49 35.89198 68.24577 34067 ft 437 kts 327°
2026-05-05 15:50 35.94549 68.20968 34063 ft 438 kts 327°
2026-05-05 15:50 35.99873 68.17372 34068 ft 438 kts 327°
2026-05-05 15:51 36.05210 68.13763 34066 ft 437 kts 327°
2026-05-05 15:51 36.10518 68.10167 34065 ft 437 kts 327°
2026-05-05 15:52 36.15815 68.06573 34068 ft 437 kts 327°
2026-05-05 15:52 36.21159 68.02942 34068 ft 437 kts 327°
2026-05-05 15:53 36.26462 67.99332 34069 ft 437 kts 327°
2026-05-05 15:53 36.31754 67.95725 34066 ft 436 kts 327°
2026-05-05 15:54 36.37090 67.92082 34068 ft 436 kts 327°
2026-05-05 15:54 36.42400 67.88450 34067 ft 436 kts 327°
2026-05-05 15:55 36.47695 67.84823 34064 ft 438 kts 327°
2026-05-05 15:55 36.53030 67.81165 34064 ft 436 kts 327°
2026-05-05 15:56 36.58309 67.77537 34064 ft 436 kts 327°
2026-05-05 15:56 36.63595 67.73899 34064 ft 437 kts 327°
2026-05-05 15:57 36.68917 67.70231 34064 ft 437 kts 327°
2026-05-05 15:57 36.74247 67.66557 34062 ft 438 kts 327°
2026-05-05 15:58 36.79556 67.62910 34061 ft 437 kts 327°
2026-05-05 15:58 36.84858 67.59260 34062 ft 437 kts 327°
2026-05-05 15:59 36.90189 67.55584 34062 ft 436 kts 327°
2026-05-05 15:59 36.95468 67.51937 34058 ft 436 kts 327°
2026-05-05 16:00 37.00795 67.48251 34059 ft 442 kts 327°
2026-05-05 16:00 37.06193 67.44509 34059 ft 446 kts 327°
2026-05-05 16:01 37.11638 67.40729 34061 ft 450 kts 327°
2026-05-05 16:01 37.17125 67.36913 34061 ft 451 kts 327°
2026-05-05 16:02 37.22624 67.33040 34070 ft 449 kts 325°
2026-05-05 16:02 37.27969 67.28934 34069 ft 449 kts 324°
2026-05-05 16:03 37.33277 67.24852 34069 ft 449 kts 324°
2026-05-05 16:03 37.38605 67.20757 34068 ft 449 kts 324°
2026-05-05 16:04 37.43930 67.16664 34068 ft 450 kts 324°
2026-05-05 16:04 37.49285 67.12544 34068 ft 450 kts 324°
2026-05-05 16:05 37.54656 67.08408 34067 ft 449 kts 324°
2026-05-05 16:05 37.59954 67.04320 34067 ft 450 kts 324°
2026-05-05 16:06 37.65282 67.00204 34068 ft 449 kts 324°
2026-05-05 16:06 37.70596 66.96090 34064 ft 449 kts 324°
2026-05-05 16:07 37.75915 66.91966 34063 ft 449 kts 324°
2026-05-05 16:07 37.81249 66.87824 34063 ft 449 kts 324°
2026-05-05 16:08 37.86561 66.83691 34065 ft 448 kts 324°
2026-05-05 16:08 37.91905 66.79527 34064 ft 450 kts 324°
2026-05-05 16:09 37.97183 66.75407 34065 ft 449 kts 324°
2026-05-05 16:09 38.02502 66.71246 34063 ft 449 kts 323°
2026-05-05 16:10 38.07805 66.67045 34073 ft 449 kts 323°
2026-05-05 16:10 38.12831 66.63056 34102 ft 449 kts 323°
2026-05-05 16:11 38.18114 66.58856 34127 ft 448 kts 323°
2026-05-05 16:12 38.28682 66.50436 34147 ft 449 kts 323°
2026-05-05 16:13 38.41327 66.40323 34144 ft 448 kts 323°
2026-05-05 16:13 38.46612 66.36083 34146 ft 449 kts 323°
2026-05-05 16:14 38.56799 66.27892 34152 ft 448 kts 323°
2026-05-05 16:15 38.67360 66.19460 34136 ft 448 kts 323°
2026-05-05 16:16 38.77998 66.11059 34091 ft 449 kts 323°
2026-05-05 16:17 38.85951 66.04752 34057 ft 449 kts 323°
2026-05-05 16:18 38.93888 65.98440 34027 ft 454 kts 324°
2026-05-05 16:19 39.01972 65.91992 34025 ft 458 kts 324°
2026-05-05 16:19 39.10123 65.85475 34024 ft 459 kts 324°
2026-05-05 16:20 39.20919 65.76815 34022 ft 459 kts 324°
2026-05-05 16:22 39.34455 65.65911 34022 ft 459 kts 324°
2026-05-05 16:23 39.45308 65.57132 34021 ft 459 kts 324°
2026-05-05 16:23 39.53419 65.50549 34021 ft 459 kts 324°
2026-05-05 16:24 39.58837 65.46143 34021 ft 459 kts 324°
2026-05-05 16:25 39.66961 65.39518 34020 ft 459 kts 324°
2026-05-05 16:25 39.75053 65.32902 34027 ft 459 kts 324°
2026-05-05 16:26 39.85869 65.24029 34027 ft 459 kts 324°
2026-05-05 16:27 39.91264 65.19590 34027 ft 459 kts 324°
2026-05-05 16:27 39.96558 65.15227 34026 ft 458 kts 324°
2026-05-05 16:28 40.01952 65.10773 34026 ft 458 kts 324°
2026-05-05 16:28 40.07364 65.06295 34026 ft 458 kts 324°
2026-05-05 16:29 40.12754 65.01828 34024 ft 457 kts 324°
2026-05-05 16:29 40.18106 64.97383 34022 ft 455 kts 324°
2026-05-05 16:30 40.23436 64.92949 34026 ft 452 kts 323°
2026-05-05 16:30 40.28764 64.88507 34019 ft 452 kts 323°
2026-05-05 16:31 40.33939 64.84184 34026 ft 450 kts 323°
2026-05-05 16:31 40.39216 64.79768 34024 ft 448 kts 323°
2026-05-05 16:32 40.44468 64.75366 34024 ft 448 kts 323°
2026-05-05 16:32 40.49723 64.70952 34024 ft 448 kts 323°
2026-05-05 16:33 40.54955 64.66550 34022 ft 447 kts 323°
2026-05-05 16:33 40.60200 64.62126 34024 ft 448 kts 324°
2026-05-05 16:34 40.65451 64.57690 34023 ft 448 kts 323°
2026-05-05 16:34 40.70698 64.53251 34020 ft 447 kts 323°
2026-05-05 16:35 40.75948 64.48800 34023 ft 449 kts 323°
2026-05-05 16:35 40.81305 64.44249 34019 ft 446 kts 323°
2026-05-05 16:36 40.86637 64.39710 34015 ft 446 kts 323°
2026-05-05 16:36 40.91949 64.35181 34022 ft 446 kts 323°
2026-05-05 16:37 40.97221 64.30675 34031 ft 447 kts 323°
2026-05-05 16:37 41.02287 64.26338 34025 ft 448 kts 323°
2026-05-05 16:38 41.07733 64.21666 34027 ft 450 kts 323°
2026-05-05 16:38 41.13113 64.17042 34026 ft 452 kts 323°
2026-05-05 16:39 41.18408 64.12483 34025 ft 451 kts 323°
2026-05-05 16:39 41.23802 64.07828 34025 ft 451 kts 323°
2026-05-05 16:40 41.29201 64.03160 34025 ft 452 kts 323°
2026-05-05 16:40 41.34489 63.98579 34024 ft 451 kts 323°
2026-05-05 16:41 41.39877 63.93903 34024 ft 451 kts 323°
2026-05-05 16:41 41.45255 63.89231 34024 ft 452 kts 323°
2026-05-05 16:42 41.50654 63.84531 34023 ft 451 kts 323°
2026-05-05 16:42 41.55967 63.79897 34023 ft 451 kts 323°
2026-05-05 16:43 41.61339 63.75202 34022 ft 451 kts 323°
2026-05-05 16:43 41.66722 63.70488 34022 ft 451 kts 323°
2026-05-05 16:44 41.72012 63.65847 34022 ft 450 kts 323°
2026-05-05 16:44 41.77393 63.61115 34022 ft 451 kts 323°
2026-05-05 16:45 41.81931 63.57117 34021 ft 450 kts 323°
2026-05-05 16:45 41.87280 63.52397 34021 ft 451 kts 323°
2026-05-05 16:46 41.92598 63.47694 34020 ft 450 kts 323°
2026-05-05 16:46 41.97854 63.43036 34020 ft 450 kts 323°
2026-05-05 16:47 42.03090 63.38386 34020 ft 450 kts 323°
2026-05-05 16:47 42.08335 63.33720 34026 ft 450 kts 322°
2026-05-05 16:48 42.13554 63.29067 34026 ft 449 kts 322°
2026-05-05 16:48 42.18790 63.24389 34026 ft 450 kts 322°
2026-05-05 16:49 42.23999 63.19727 34026 ft 450 kts 322°
2026-05-05 16:49 42.29190 63.15071 34024 ft 450 kts 322°
2026-05-05 16:50 42.34374 63.10412 34014 ft 449 kts 322°
2026-05-05 16:50 42.39585 63.05720 34006 ft 447 kts 322°
2026-05-05 16:51 42.44721 63.01085 34007 ft 444 kts 322°
2026-05-05 16:51 42.49817 62.96478 34018 ft 441 kts 322°
2026-05-05 16:52 42.54877 62.91893 34012 ft 440 kts 322°
2026-05-05 16:52 42.59950 62.87287 34001 ft 435 kts 322°
2026-05-05 16:53 42.64964 62.82725 34003 ft 439 kts 322°
2026-05-05 16:53 42.70040 62.78098 34002 ft 437 kts 322°
2026-05-05 16:54 42.75036 62.73536 34006 ft 437 kts 322°
2026-05-05 16:54 42.80081 62.68919 34001 ft 436 kts 322°
2026-05-05 16:55 42.85119 62.64299 33999 ft 439 kts 322°
2026-05-05 16:55 42.90166 62.59662 33992 ft 438 kts 322°
2026-05-05 16:56 42.95242 62.54989 34004 ft 445 kts 322°
2026-05-05 16:56 43.00390 62.50240 33998 ft 445 kts 321°
2026-05-05 16:57 43.05549 62.45470 33999 ft 450 kts 321°
2026-05-05 16:57 43.10744 62.40660 33996 ft 449 kts 321°
2026-05-05 16:58 43.15896 62.35878 33995 ft 448 kts 321°
2026-05-05 16:58 43.21072 62.31063 34006 ft 448 kts 321°
2026-05-05 16:59 43.26233 62.26253 34002 ft 448 kts 321°
2026-05-05 16:59 43.31371 62.21454 34006 ft 448 kts 321°
2026-05-05 17:00 43.36527 62.16628 34005 ft 448 kts 321°
2026-05-05 17:00 43.41662 62.11813 34003 ft 448 kts 320°
2026-05-05 17:01 43.46904 62.07215 34004 ft 453 kts 328°
2026-05-05 17:01 43.52608 62.03511 34004 ft 454 kts 329°
2026-05-05 17:02 43.58330 61.99831 34003 ft 454 kts 329°
2026-05-05 17:02 43.64029 61.96151 34002 ft 454 kts 329°
2026-05-05 17:03 43.69759 61.92439 34004 ft 454 kts 329°
2026-05-05 17:03 43.75499 61.88710 34003 ft 454 kts 329°
2026-05-05 17:04 43.81199 61.84998 34001 ft 455 kts 329°
2026-05-05 17:04 43.86935 61.81255 34004 ft 455 kts 329°
2026-05-05 17:05 43.92653 61.77515 34001 ft 455 kts 329°
2026-05-05 17:05 43.97825 61.74126 34003 ft 453 kts 329°
2026-05-05 17:06 44.03547 61.70367 34002 ft 454 kts 329°
2026-05-05 17:06 44.09250 61.66614 34002 ft 453 kts 329°
2026-05-05 17:07 44.14954 61.62852 33999 ft 453 kts 329°
2026-05-05 17:07 44.20627 61.59107 34000 ft 453 kts 329°
2026-05-05 17:08 44.26332 61.55335 33999 ft 454 kts 330°
2026-05-05 17:08 44.32084 61.51524 34001 ft 455 kts 329°
2026-05-05 17:09 44.37806 61.47725 33998 ft 453 kts 330°
2026-05-05 17:09 44.43489 61.43944 33998 ft 454 kts 329°
2026-05-05 17:10 44.49228 61.40116 33998 ft 454 kts 329°
2026-05-05 17:10 44.54943 61.36296 33998 ft 454 kts 329°
2026-05-05 17:11 44.60581 61.32519 34008 ft 454 kts 329°
2026-05-05 17:11 44.66302 61.28679 34007 ft 454 kts 329°
2026-05-05 17:12 44.71992 61.24851 34005 ft 452 kts 329°
2026-05-05 17:12 44.77512 61.21129 34008 ft 454 kts 329°
2026-05-05 17:13 44.83136 61.17330 34006 ft 451 kts 329°
2026-05-05 17:13 44.88891 61.13433 34004 ft 451 kts 328°
2026-05-05 17:14 44.94513 61.09618 34005 ft 449 kts 328°
2026-05-05 17:14 45.00167 61.05770 34007 ft 452 kts 328°
2026-05-05 17:15 45.05905 61.01856 34009 ft 460 kts 328°
2026-05-05 17:15 45.11690 60.97903 34002 ft 464 kts 328°
2026-05-05 17:16 45.17521 60.93912 34000 ft 463 kts 328°
2026-05-05 17:16 45.23314 60.89937 34001 ft 463 kts 328°
2026-05-05 17:17 45.29150 60.85923 34001 ft 463 kts 328°
2026-05-05 17:17 45.34967 60.81909 34001 ft 463 kts 328°
2026-05-05 17:18 45.40736 60.77838 33998 ft 460 kts 323°
2026-05-05 17:18 45.45747 60.72336 34002 ft 450 kts 313°
2026-05-05 17:19 45.50402 60.66405 34000 ft 450 kts 313°
2026-05-05 17:19 45.55042 60.60465 34000 ft 450 kts 313°
2026-05-05 17:20 45.59697 60.54485 34000 ft 450 kts 312°
2026-05-05 17:20 45.64343 60.48502 34000 ft 450 kts 312°
2026-05-05 17:21 45.69011 60.42475 33999 ft 449 kts 312°
2026-05-05 17:22 45.75969 60.33464 34006 ft 449 kts 312°
2026-05-05 17:22 45.80558 60.27503 34008 ft 449 kts 312°
2026-05-05 17:23 45.85175 60.21491 34007 ft 449 kts 312°
2026-05-05 17:23 45.89796 60.15460 34007 ft 448 kts 311°
2026-05-05 17:24 45.94381 60.09462 34007 ft 449 kts 312°
2026-05-05 17:24 45.99002 60.03404 34007 ft 448 kts 312°
2026-05-05 17:25 46.03591 59.97372 34006 ft 448 kts 312°
2026-05-05 17:25 46.08174 59.91335 34006 ft 448 kts 312°
2026-05-05 17:26 46.12803 59.85222 34000 ft 449 kts 311°
2026-05-05 17:26 46.17419 59.79112 34000 ft 449 kts 311°
2026-05-05 17:27 46.22015 59.73013 33999 ft 449 kts 311°
2026-05-05 17:27 46.26461 59.66810 34002 ft 447 kts 309°
2026-05-05 17:28 46.30887 59.60432 34013 ft 447 kts 309°
2026-05-05 17:28 46.35275 59.54113 34024 ft 446 kts 310°
2026-05-05 17:29 46.39651 59.47805 34036 ft 445 kts 310°
2026-05-05 17:29 46.44049 59.41455 34040 ft 445 kts 310°
2026-05-05 17:30 46.48416 59.35139 34039 ft 446 kts 310°
2026-05-05 17:30 46.52822 59.28750 34048 ft 445 kts 309°
2026-05-05 17:31 46.57167 59.22437 34048 ft 445 kts 309°
2026-05-05 17:31 46.61550 59.16053 34048 ft 445 kts 309°
2026-05-05 17:32 46.65900 59.09702 34047 ft 445 kts 309°
2026-05-05 17:32 46.70268 59.03309 34047 ft 445 kts 309°
2026-05-05 17:33 46.74596 58.96960 34046 ft 441 kts 309°
2026-05-05 17:33 46.78906 58.90622 34046 ft 438 kts 309°
2026-05-05 17:34 46.83184 58.84317 34045 ft 435 kts 309°
2026-05-05 17:34 46.87425 58.78051 34043 ft 431 kts 309°
2026-05-05 17:35 46.91658 58.71775 34043 ft 436 kts 309°
2026-05-05 17:35 46.95926 58.65436 34044 ft 442 kts 309°
2026-05-05 17:36 47.00255 58.58992 34045 ft 448 kts 309°
2026-05-05 17:36 47.04635 58.52457 34045 ft 452 kts 309°
2026-05-05 17:37 47.09089 58.45795 34045 ft 451 kts 309°
2026-05-05 17:37 47.13561 58.39090 34039 ft 451 kts 309°
2026-05-05 17:38 47.17940 58.32508 34045 ft 450 kts 309°
2026-05-05 17:38 47.22339 58.25877 34046 ft 450 kts 309°
2026-05-05 17:39 47.26745 58.19220 34045 ft 450 kts 309°
2026-05-05 17:39 47.31142 58.12558 34045 ft 450 kts 309°
2026-05-05 17:40 47.35507 58.05925 34045 ft 450 kts 309°
2026-05-05 17:40 47.39882 57.99258 34045 ft 450 kts 309°
2026-05-05 17:41 47.44260 57.92571 34045 ft 451 kts 309°
2026-05-05 17:41 47.48624 57.85889 34044 ft 451 kts 309°
2026-05-05 17:42 47.52950 57.79246 34044 ft 451 kts 309°
2026-05-05 17:42 47.57326 57.72511 34044 ft 451 kts 309°
2026-05-05 17:43 47.61684 57.65786 34044 ft 451 kts 309°
2026-05-05 17:43 47.66077 57.58990 34043 ft 451 kts 309°
2026-05-05 17:44 47.70449 57.52208 34043 ft 450 kts 309°
2026-05-05 17:44 47.74762 57.45501 34043 ft 450 kts 309°
2026-05-05 17:45 47.79207 57.38570 34043 ft 450 kts 309°
2026-05-05 17:45 47.83557 57.31769 34049 ft 449 kts 308°
2026-05-05 17:46 47.87893 57.24973 34050 ft 449 kts 308°
2026-05-05 17:46 47.92210 57.18187 34049 ft 449 kts 308°
2026-05-05 17:47 47.96538 57.11368 34049 ft 449 kts 308°
2026-05-05 17:47 48.00860 57.04541 34049 ft 447 kts 308°
2026-05-05 17:48 48.05134 56.97772 34048 ft 445 kts 308°
2026-05-05 17:48 48.09393 56.91010 34048 ft 443 kts 308°
2026-05-05 17:49 48.13618 56.84282 34043 ft 442 kts 308°
2026-05-05 17:49 48.17881 56.77478 34042 ft 443 kts 308°
2026-05-05 17:50 48.22126 56.70683 34042 ft 442 kts 308°
2026-05-05 17:50 48.26343 56.63918 34041 ft 442 kts 308°
2026-05-05 17:51 48.30547 56.57155 34041 ft 443 kts 308°
2026-05-05 17:51 48.34805 56.50287 34040 ft 441 kts 308°
2026-05-05 17:52 48.39121 56.43315 34040 ft 441 kts 308°
2026-05-05 17:52 48.43321 56.36517 34040 ft 441 kts 308°
2026-05-05 17:53 48.47593 56.29583 34049 ft 442 kts 307°
2026-05-05 17:53 48.51772 56.22783 34048 ft 441 kts 307°
2026-05-05 17:54 48.55917 56.16018 34048 ft 442 kts 307°
2026-05-05 17:54 48.60085 56.09197 34046 ft 440 kts 307°
2026-05-05 17:55 48.64257 56.02349 34047 ft 441 kts 307°
2026-05-05 17:55 48.68389 55.95552 34046 ft 440 kts 307°
2026-05-05 17:56 48.72559 55.88672 34045 ft 441 kts 307°
2026-05-05 17:56 48.76702 55.81817 34045 ft 441 kts 307°
2026-05-05 17:57 48.80864 55.74915 34045 ft 441 kts 307°
2026-05-05 17:57 48.84989 55.68055 34045 ft 441 kts 307°
2026-05-05 17:58 48.89105 55.61185 34045 ft 441 kts 307°
2026-05-05 17:58 48.93247 55.54254 34044 ft 441 kts 307°
2026-05-05 17:59 48.97366 55.47340 34043 ft 442 kts 307°
2026-05-05 17:59 49.01492 55.40397 34043 ft 442 kts 307°
2026-05-05 18:00 49.05613 55.33445 34049 ft 443 kts 306°
2026-05-05 18:00 49.09757 55.26436 34052 ft 444 kts 306°
2026-05-05 18:01 49.13877 55.19445 34045 ft 446 kts 306°
2026-05-05 18:01 49.18028 55.12387 34044 ft 445 kts 306°
2026-05-05 18:02 49.22155 55.05351 34044 ft 446 kts 306°
2026-05-05 18:02 49.26297 54.98271 34044 ft 448 kts 306°
2026-05-05 18:03 49.30457 54.91140 34043 ft 448 kts 306°
2026-05-05 18:03 49.34583 54.84049 34044 ft 447 kts 306°
2026-05-05 18:04 49.38731 54.76901 34043 ft 448 kts 306°
2026-05-05 18:04 49.42842 54.69797 34043 ft 448 kts 306°
2026-05-05 18:05 49.46987 54.62613 34043 ft 447 kts 306°
2026-05-05 18:05 49.51098 54.55471 34042 ft 447 kts 306°
2026-05-05 18:06 49.55197 54.48326 34042 ft 447 kts 306°
2026-05-05 18:06 49.59316 54.41130 34041 ft 446 kts 306°
2026-05-05 18:07 49.63423 54.33934 34044 ft 446 kts 306°
2026-05-05 18:07 49.67518 54.26739 34048 ft 446 kts 306°
2026-05-05 18:08 49.71602 54.19542 34048 ft 446 kts 306°
2026-05-05 18:08 49.75672 54.12351 34048 ft 446 kts 306°
2026-05-05 18:09 49.79747 54.05132 34048 ft 446 kts 306°
2026-05-05 18:09 49.83820 53.97895 34048 ft 446 kts 306°
2026-05-05 18:10 49.87886 53.90650 34047 ft 446 kts 306°
2026-05-05 18:10 49.91942 53.83403 34047 ft 447 kts 306°
2026-05-05 18:11 49.96003 53.76129 34046 ft 446 kts 306°
2026-05-05 18:11 50.00065 53.68831 34046 ft 446 kts 306°
2026-05-05 18:12 50.04133 53.61501 34047 ft 446 kts 306°
2026-05-05 18:12 50.08161 53.54222 34047 ft 446 kts 306°
2026-05-05 18:13 50.12205 53.46896 34039 ft 446 kts 306°
2026-05-05 18:13 50.16242 53.39560 34039 ft 446 kts 306°
2026-05-05 18:14 50.20259 53.32241 34045 ft 445 kts 305°
2026-05-05 18:14 50.24291 53.24873 34046 ft 445 kts 305°
2026-05-05 18:15 50.28305 53.17516 34045 ft 445 kts 305°
2026-05-05 18:15 50.32294 53.10186 34045 ft 446 kts 305°
2026-05-05 18:16 50.36299 53.02805 34045 ft 445 kts 305°
2026-05-05 18:16 50.40303 52.95404 34045 ft 444 kts 305°
2026-05-05 18:17 50.44271 52.88050 34045 ft 443 kts 305°
2026-05-05 18:17 50.48236 52.80680 34043 ft 441 kts 306°
2026-05-05 18:18 50.52168 52.73348 34046 ft 441 kts 305°
2026-05-05 18:18 50.56130 52.65943 34042 ft 442 kts 305°
2026-05-05 18:19 50.60066 52.58564 34044 ft 441 kts 305°
2026-05-05 18:19 50.63988 52.51189 34045 ft 441 kts 306°
2026-05-05 18:20 50.67914 52.43786 34041 ft 441 kts 305°
2026-05-05 18:20 50.71850 52.36382 34043 ft 442 kts 306°
2026-05-05 18:21 50.75790 52.28983 34048 ft 440 kts 305°
2026-05-05 18:21 50.79736 52.21550 34047 ft 440 kts 305°
2026-05-05 18:22 50.83675 52.14104 34048 ft 441 kts 305°
2026-05-05 18:22 50.87588 52.06688 34047 ft 440 kts 305°
2026-05-05 18:23 50.91484 51.99282 34047 ft 441 kts 305°
2026-05-05 18:23 50.95420 51.91777 34046 ft 441 kts 306°
2026-05-05 18:24 50.99342 51.84278 34046 ft 441 kts 306°
2026-05-05 18:24 51.03259 51.76765 34045 ft 442 kts 307°
2026-05-05 18:25 51.07179 51.69227 34045 ft 443 kts 307°
2026-05-05 18:25 51.11102 51.61661 34043 ft 443 kts 307°
2026-05-05 18:26 51.14905 51.53990 34046 ft 440 kts 300°
2026-05-05 18:26 51.17941 51.45551 34042 ft 439 kts 297°
2026-05-05 18:27 51.20895 51.37071 34041 ft 439 kts 297°
2026-05-05 18:27 51.23839 51.28585 34046 ft 439 kts 296°
2026-05-05 18:28 51.27900 51.16828 34046 ft 439 kts 296°
2026-05-05 18:28 51.30828 51.08319 34048 ft 439 kts 296°
2026-05-05 18:29 51.33771 50.99732 34045 ft 440 kts 296°
2026-05-05 18:29 51.36711 50.91125 34403 ft 444 kts 296°
2026-05-05 18:30 51.38177 50.86825 34904 ft 440 kts 297°
2026-05-05 18:30 51.39632 50.82547 35345 ft 437 kts 297°
2026-05-05 18:30 51.41071 50.78312 35663 ft 436 kts 297°
2026-05-05 18:30 51.42520 50.74038 35941 ft 437 kts 297°
2026-05-05 18:31 51.43967 50.69763 36244 ft 437 kts 297°
2026-05-05 18:31 51.45418 50.65467 36560 ft 436 kts 297°
2026-05-05 18:31 51.46847 50.61228 36832 ft 436 kts 297°
2026-05-05 18:31 51.48289 50.56947 37077 ft 436 kts 297°
2026-05-05 18:32 51.49707 50.52660 37290 ft 436 kts 294°
2026-05-05 18:32 51.50984 50.48255 37513 ft 435 kts 293°
2026-05-05 18:32 51.52236 50.43844 37716 ft 435 kts 293°
2026-05-05 18:32 51.53486 50.39449 37915 ft 436 kts 293°
2026-05-05 18:33 51.54742 50.35038 38065 ft 436 kts 293°
2026-05-05 18:33 51.56013 50.30582 38024 ft 438 kts 292°
2026-05-05 18:33 51.58565 50.21627 38022 ft 447 kts 292°
2026-05-05 18:34 51.61181 50.12433 38020 ft 456 kts 293°
2026-05-05 18:34 51.63829 50.03102 38019 ft 460 kts 292°
2026-05-05 18:35 51.66465 49.93786 38019 ft 460 kts 293°
2026-05-05 18:35 51.69119 49.84365 38018 ft 460 kts 293°
2026-05-05 18:36 51.71753 49.74979 38018 ft 460 kts 293°
2026-05-05 18:36 51.74384 49.65569 38017 ft 460 kts 292°
2026-05-05 18:37 51.77005 49.56157 38017 ft 460 kts 293°
2026-05-05 18:37 51.79615 49.46746 38016 ft 459 kts 293°
2026-05-05 18:38 51.82202 49.37378 38016 ft 460 kts 292°
2026-05-05 18:38 51.84797 49.27944 38020 ft 460 kts 292°
2026-05-05 18:39 51.87389 49.18483 38020 ft 460 kts 292°
2026-05-05 18:39 51.89966 49.09040 38019 ft 458 kts 292°
2026-05-05 18:40 51.92534 48.99588 38019 ft 458 kts 293°
2026-05-05 18:40 51.95081 48.90178 38017 ft 458 kts 293°
2026-05-05 18:41 51.97634 48.80706 38017 ft 458 kts 293°
2026-05-05 18:41 52.00178 48.71209 38017 ft 458 kts 293°
2026-05-05 18:42 52.02694 48.61771 38015 ft 458 kts 293°
2026-05-05 18:42 52.05212 48.52290 38008 ft 458 kts 293°
2026-05-05 18:43 52.07725 48.42790 37998 ft 458 kts 293°
2026-05-05 18:43 52.10221 48.33312 37993 ft 458 kts 292°
2026-05-05 18:44 52.12735 48.23725 37990 ft 459 kts 292°
2026-05-05 18:44 52.15268 48.14221 37993 ft 458 kts 293°
2026-05-05 18:45 52.17857 48.04827 38005 ft 458 kts 293°
2026-05-05 18:45 52.20457 47.95337 38019 ft 458 kts 293°
2026-05-05 18:46 52.23039 47.85865 38018 ft 458 kts 293°
2026-05-05 18:46 52.25612 47.76379 38018 ft 458 kts 293°
2026-05-05 18:47 52.28177 47.66882 38018 ft 458 kts 293°
2026-05-05 18:47 52.30737 47.57358 38017 ft 458 kts 293°
2026-05-05 18:48 52.33290 47.47823 38017 ft 458 kts 293°
2026-05-05 18:48 52.35839 47.38273 38016 ft 458 kts 293°
2026-05-05 18:49 52.38380 47.28715 38020 ft 458 kts 292°
2026-05-05 18:49 52.40907 47.19171 38020 ft 458 kts 292°
2026-05-05 18:50 52.43424 47.09625 38019 ft 458 kts 292°
2026-05-05 18:50 52.45942 47.00030 38019 ft 458 kts 293°
2026-05-05 18:51 52.48431 46.90508 38018 ft 455 kts 294°
2026-05-05 18:51 52.50908 46.80989 38018 ft 456 kts 294°
2026-05-05 18:52 52.53386 46.71402 38017 ft 456 kts 295°
2026-05-05 18:52 52.55858 46.61794 38017 ft 456 kts 295°
2026-05-05 18:53 52.58311 46.52216 38017 ft 456 kts 295°
2026-05-05 18:53 52.60777 46.42553 38016 ft 456 kts 295°
2026-05-05 18:54 52.63206 46.32903 38016 ft 456 kts 292°
2026-05-05 18:54 52.65402 46.23086 38018 ft 457 kts 291°
2026-05-05 18:55 52.67576 46.13302 38018 ft 457 kts 291°
2026-05-05 18:55 52.69757 46.03480 38017 ft 456 kts 291°
2026-05-05 18:56 52.71934 45.93647 38017 ft 457 kts 292°
2026-05-05 18:56 52.74105 45.83812 38017 ft 456 kts 291°
2026-05-05 18:57 52.76277 45.73927 38016 ft 457 kts 291°
2026-05-05 18:57 52.78429 45.64086 38015 ft 456 kts 292°
2026-05-05 18:58 52.80564 45.54282 38011 ft 457 kts 292°
2026-05-05 18:58 52.82711 45.44366 37991 ft 457 kts 292°
2026-05-05 18:59 52.84840 45.34470 37976 ft 457 kts 291°
2026-05-05 18:59 52.86960 45.24566 37976 ft 457 kts 291°
2026-05-05 19:00 52.89078 45.14626 37976 ft 457 kts 291°
2026-05-05 19:00 52.91167 45.04774 37975 ft 456 kts 291°
2026-05-05 19:01 52.93280 44.94835 37973 ft 454 kts 294°
2026-05-05 19:01 52.95481 44.85076 37972 ft 455 kts 294°
2026-05-05 19:02 52.97687 44.75246 37972 ft 455 kts 294°
2026-05-05 19:02 52.99878 44.65425 37971 ft 457 kts 294°
2026-05-05 19:03 53.02081 44.55492 37970 ft 457 kts 295°
2026-05-05 19:03 53.04269 44.45570 37970 ft 459 kts 295°
2026-05-05 19:04 53.06444 44.35650 37970 ft 460 kts 295°
2026-05-05 19:04 53.08637 44.25590 37971 ft 463 kts 294°
2026-05-05 19:05 53.10813 44.15558 37981 ft 463 kts 294°
2026-05-05 19:05 53.13000 44.05426 37982 ft 464 kts 294°
2026-05-05 19:06 53.15159 43.95371 37981 ft 464 kts 294°
2026-05-05 19:06 53.17329 43.85218 37982 ft 464 kts 294°
2026-05-05 19:07 53.19482 43.75090 37981 ft 464 kts 294°
2026-05-05 19:07 53.21630 43.64939 37981 ft 463 kts 294°
2026-05-05 19:08 53.23759 43.54826 37980 ft 463 kts 294°
2026-05-05 19:08 53.25890 43.44649 37980 ft 464 kts 294°
2026-05-05 19:09 53.28003 43.34509 37979 ft 463 kts 293°
2026-05-05 19:09 53.30115 43.24327 37979 ft 464 kts 293°
2026-05-05 19:10 53.32227 43.14088 37980 ft 463 kts 293°
2026-05-05 19:10 53.34310 43.03933 37979 ft 462 kts 293°
2026-05-05 19:11 53.36371 42.93841 37979 ft 459 kts 293°
2026-05-05 19:11 53.38434 42.83684 37979 ft 459 kts 293°
2026-05-05 19:12 53.40467 42.73626 37979 ft 460 kts 293°
2026-05-05 19:12 53.42504 42.63495 37979 ft 460 kts 293°
2026-05-05 19:13 53.44544 42.53300 37978 ft 460 kts 293°
2026-05-05 19:13 53.46510 42.43093 37979 ft 461 kts 291°
2026-05-05 19:14 53.48311 42.32793 37977 ft 461 kts 291°
2026-05-05 19:14 53.50117 42.22438 37978 ft 462 kts 291°
2026-05-05 19:15 53.51907 42.12149 37978 ft 461 kts 291°
2026-05-05 19:15 53.53698 42.01812 37977 ft 461 kts 291°
2026-05-05 19:16 53.55486 41.91443 37977 ft 461 kts 291°
2026-05-05 19:16 53.57265 41.81070 37976 ft 461 kts 291°
2026-05-05 19:17 53.59029 41.70729 37976 ft 461 kts 291°
2026-05-05 19:17 53.60790 41.60343 37975 ft 461 kts 291°
2026-05-05 19:18 53.62539 41.49970 37975 ft 461 kts 291°
2026-05-05 19:18 53.64267 41.39651 37975 ft 461 kts 291°
2026-05-05 19:19 53.66014 41.29168 37976 ft 462 kts 290°
2026-05-05 19:19 53.67728 41.18811 37976 ft 462 kts 290°
2026-05-05 19:20 53.69442 41.08394 37975 ft 461 kts 290°
2026-05-05 19:20 53.71478 40.98162 37979 ft 457 kts 297°
2026-05-05 19:21 53.74028 40.88366 37974 ft 456 kts 297°
2026-05-05 19:21 53.76589 40.78486 37974 ft 458 kts 296°
2026-05-05 19:22 53.79112 40.68688 37974 ft 459 kts 296°
2026-05-05 19:22 53.81655 40.58757 37973 ft 457 kts 296°
2026-05-05 19:23 53.84173 40.48873 37973 ft 458 kts 296°
2026-05-05 19:23 53.86702 40.38901 37973 ft 458 kts 296°
2026-05-05 19:24 53.89203 40.29013 37974 ft 459 kts 296°
2026-05-05 19:24 53.91724 40.19032 37974 ft 458 kts 296°
2026-05-05 19:25 53.94241 40.09014 37974 ft 458 kts 296°
2026-05-05 19:25 53.96722 39.99101 37973 ft 458 kts 296°
2026-05-05 19:26 53.99198 39.89156 37973 ft 459 kts 296°
2026-05-05 19:26 54.01667 39.79200 37972 ft 458 kts 296°
2026-05-05 19:27 54.04126 39.69235 37971 ft 457 kts 296°
2026-05-05 19:27 54.05338 39.64301 37964 ft 443 kts 296°
2026-05-05 19:27 54.06504 39.59544 37965 ft 428 kts 296°
2026-05-05 19:28 54.08763 39.50311 37973 ft 426 kts 296°
2026-05-05 19:28 54.11042 39.40963 37956 ft 424 kts 296°
2026-05-05 19:29 54.12156 39.36370 37675 ft 417 kts 296°
2026-05-05 19:29 54.13261 39.31813 36941 ft 420 kts 295°
2026-05-05 19:29 54.14372 39.27226 36056 ft 426 kts 295°
2026-05-05 19:29 54.15503 39.22539 35248 ft 429 kts 295°
2026-05-05 19:30 54.16634 39.17845 34493 ft 430 kts 295°
2026-05-05 19:30 54.17712 39.13359 33779 ft 431 kts 295°
2026-05-05 19:30 54.18810 39.08776 33040 ft 432 kts 295°
2026-05-05 19:30 54.19950 39.04012 32273 ft 433 kts 295°
2026-05-05 19:31 54.21041 38.99453 31926 ft 424 kts 296°
2026-05-05 19:31 54.22397 38.95100 31823 ft 407 kts 306°
2026-05-05 19:31 54.24115 38.91359 31612 ft 394 kts 315°
2026-05-05 19:31 54.26146 38.88200 30989 ft 394 kts 323°
2026-05-05 19:32 54.28444 38.85671 30105 ft 401 kts 332°
2026-05-05 19:32 54.30942 38.83452 29246 ft 407 kts 333°
2026-05-05 19:32 54.33452 38.81274 28533 ft 409 kts 333°
2026-05-05 19:32 54.35972 38.79098 27861 ft 409 kts 333°
2026-05-05 19:33 54.38520 38.76902 27132 ft 410 kts 333°
2026-05-05 19:33 54.41049 38.74724 26360 ft 411 kts 333°
2026-05-05 19:33 54.43595 38.72532 25915 ft 404 kts 333°
2026-05-05 19:33 54.46057 38.70413 25909 ft 386 kts 333°
2026-05-05 19:34 54.48405 38.68390 25907 ft 371 kts 333°
2026-05-05 19:34 54.50709 38.66402 25913 ft 373 kts 333°
2026-05-05 19:34 54.53047 38.64381 25909 ft 374 kts 333°
2026-05-05 19:35 54.57697 38.60358 25905 ft 373 kts 333°
2026-05-05 19:35 54.60011 38.58352 25906 ft 373 kts 333°
2026-05-05 19:35 54.62328 38.56341 25908 ft 374 kts 333°
2026-05-05 19:35 54.64667 38.54310 25910 ft 373 kts 333°
2026-05-05 19:36 54.66964 38.52311 25912 ft 374 kts 333°
2026-05-05 19:36 54.69305 38.50272 25913 ft 374 kts 333°
2026-05-05 19:36 54.71615 38.48257 25915 ft 374 kts 333°
2026-05-05 19:36 54.73979 38.46195 25910 ft 374 kts 333°
2026-05-05 19:37 54.76316 38.44170 25724 ft 375 kts 333°
2026-05-05 19:37 54.78646 38.42151 25509 ft 372 kts 333°
2026-05-05 19:37 54.80930 38.40169 25326 ft 370 kts 333°
2026-05-05 19:37 54.83231 38.38156 25149 ft 369 kts 331°
2026-05-05 19:38 54.85387 38.35683 24975 ft 369 kts 322°
2026-05-05 19:38 54.87154 38.32844 24816 ft 368 kts 315°
2026-05-05 19:38 54.88975 38.29637 24642 ft 368 kts 315°
2026-05-05 19:38 54.90773 38.26449 24466 ft 366 kts 315°
2026-05-05 19:39 54.92546 38.23297 24293 ft 365 kts 315°
2026-05-05 19:39 54.94312 38.20151 24121 ft 364 kts 315°
2026-05-05 19:39 54.96096 38.16969 23947 ft 363 kts 315°
2026-05-05 19:39 54.97860 38.13813 23694 ft 364 kts 315°
2026-05-05 19:40 54.99614 38.10660 23264 ft 363 kts 315°
2026-05-05 19:40 55.01353 38.07531 22859 ft 358 kts 315°
2026-05-05 19:40 55.03091 38.04399 22478 ft 355 kts 315°
2026-05-05 19:40 55.04803 38.01310 22110 ft 353 kts 315°
2026-05-05 19:41 55.06505 37.98237 21742 ft 352 kts 315°
2026-05-05 19:41 55.08203 37.95166 21375 ft 350 kts 314°
2026-05-05 19:41 55.09896 37.92099 21008 ft 348 kts 314°
2026-05-05 19:41 55.11491 37.89208 20692 ft 345 kts 314°
2026-05-05 19:42 55.13164 37.86173 20446 ft 345 kts 314°
2026-05-05 19:42 55.14851 37.83109 20189 ft 345 kts 314°
2026-05-05 19:42 55.16523 37.80150 19944 ft 342 kts 319°
2026-05-05 19:42 55.18413 37.77592 19910 ft 342 kts 323°
2026-05-05 19:43 55.20354 37.75113 19906 ft 343 kts 324°
2026-05-05 19:43 55.22283 37.72661 19906 ft 343 kts 324°
2026-05-05 19:43 55.24223 37.70190 19905 ft 343 kts 324°
2026-05-05 19:43 55.26140 37.67746 19901 ft 335 kts 324°
2026-05-05 19:44 55.27983 37.65391 19893 ft 321 kts 324°
2026-05-05 19:44 55.29781 37.63089 19661 ft 319 kts 324°
2026-05-05 19:44 55.31565 37.60801 19384 ft 316 kts 324°
2026-05-05 19:44 55.33324 37.58543 19143 ft 313 kts 324°
2026-05-05 19:45 55.35098 37.56264 18914 ft 313 kts 324°
2026-05-05 19:45 55.36856 37.54002 18689 ft 312 kts 324°
2026-05-05 19:45 55.38600 37.51755 18465 ft 311 kts 324°
2026-05-05 19:45 55.40350 37.49499 18241 ft 310 kts 324°
2026-05-05 19:46 55.42079 37.47268 18019 ft 309 kts 324°
2026-05-05 19:46 55.43823 37.45015 17796 ft 308 kts 324°
2026-05-05 19:46 55.45555 37.42773 17573 ft 307 kts 324°
2026-05-05 19:46 55.47281 37.40539 17352 ft 306 kts 324°
2026-05-05 19:47 55.49002 37.38308 17131 ft 306 kts 324°
2026-05-05 19:47 55.50848 37.36482 16899 ft 306 kts 341°
2026-05-05 19:47 55.52938 37.35851 16617 ft 308 kts 355°
2026-05-05 19:47 55.54384 37.35748 16365 ft 309 kts 357°
2026-05-05 19:48 55.56044 37.35708 16078 ft 307 kts 358°
2026-05-05 19:48 55.58186 37.35686 15723 ft 304 kts 358°
2026-05-05 19:48 55.60298 37.35667 15381 ft 303 kts 358°
2026-05-05 19:48 55.62407 37.35647 15041 ft 302 kts 358°
2026-05-05 19:49 55.64514 37.35626 14701 ft 300 kts 358°
2026-05-05 19:49 55.65893 37.35612 14478 ft 300 kts 358°
2026-05-05 19:49 55.68687 37.35583 14028 ft 298 kts 358°
2026-05-05 19:49 55.70731 37.35563 13697 ft 297 kts 358°
2026-05-05 19:50 55.72740 37.35542 13371 ft 295 kts 358°
2026-05-05 19:50 55.74851 37.35390 12976 ft 295 kts 354°
2026-05-05 19:50 55.76888 37.35133 12554 ft 293 kts 354°
2026-05-05 19:50 55.78882 37.34896 12150 ft 291 kts 354°
2026-05-05 19:51 55.80888 37.34673 11753 ft 289 kts 354°
2026-05-05 19:51 55.82462 37.34503 11442 ft 287 kts 354°
2026-05-05 19:51 55.84417 37.34352 11095 ft 284 kts 357°
2026-05-05 19:51 55.86140 37.34343 10870 ft 278 kts 358°
2026-05-05 19:52 55.88126 37.34330 10608 ft 273 kts 357°
2026-05-05 19:52 55.90006 37.34301 10350 ft 272 kts 357°
2026-05-05 19:52 55.91885 37.34266 10085 ft 271 kts 357°
2026-05-05 19:52 55.93763 37.34228 9863 ft 269 kts 357°
2026-05-05 19:53 55.95637 37.34191 9628 ft 263 kts 357°
2026-05-05 19:53 55.97445 37.34155 9412 ft 257 kts 358°
2026-05-05 19:53 55.99155 37.34120 9206 ft 252 kts 358°
2026-05-05 19:53 56.00908 37.34085 8973 ft 248 kts 358°
2026-05-05 19:54 56.02596 37.34050 8740 ft 244 kts 358°
2026-05-05 19:54 56.04298 37.34016 8502 ft 242 kts 358°
2026-05-05 19:54 56.05975 37.33982 8269 ft 241 kts 358°
2026-05-05 19:54 56.07641 37.33948 8036 ft 241 kts 358°
2026-05-05 19:55 56.09313 37.33914 7802 ft 240 kts 358°
2026-05-05 19:55 56.10825 37.33883 7592 ft 239 kts 358°
2026-05-05 19:55 56.12312 37.33853 7386 ft 239 kts 358°
2026-05-05 19:55 56.13962 37.33938 7149 ft 239 kts 10°
2026-05-05 19:56 56.15445 37.35181 6909 ft 241 kts 39°
2026-05-05 19:56 56.16428 37.37627 6676 ft 243 kts 64°
2026-05-05 19:56 56.16998 37.40488 6440 ft 244 kts 71°
2026-05-05 19:56 56.17459 37.43431 6199 ft 243 kts 73°
2026-05-05 19:57 56.17897 37.46358 5962 ft 242 kts 73°
2026-05-05 19:57 56.18187 37.48293 5806 ft 241 kts 73°
2026-05-05 19:57 56.18765 37.52158 5496 ft 240 kts 73°
2026-05-05 19:57 56.19197 37.55052 5263 ft 239 kts 74°
2026-05-05 19:58 56.19272 37.58001 5017 ft 240 kts 102°
2026-05-05 19:58 56.18531 37.60659 4847 ft 239 kts 126°
2026-05-05 19:58 56.17449 37.62920 4764 ft 241 kts 132°
2026-05-05 19:58 56.16278 37.65103 4662 ft 241 kts 134°
2026-05-05 19:59 56.15106 37.67250 4548 ft 240 kts 134°
2026-05-05 19:59 56.13940 37.69385 4430 ft 235 kts 134°
2026-05-05 19:59 56.12807 37.71460 4319 ft 229 kts 134°
2026-05-05 19:59 56.11709 37.73471 4212 ft 224 kts 134°
2026-05-05 20:00 56.10625 37.75449 4107 ft 219 kts 136°
2026-05-05 20:00 56.09335 37.76827 3989 ft 215 kts 168°
2026-05-05 20:00 56.07847 37.76820 3751 ft 216 kts 192°
2026-05-05 20:00 56.06415 37.76158 3760 ft 204 kts 197°
2026-05-05 20:01 56.05059 37.75402 3761 ft 202 kts 198°
2026-05-05 20:01 56.03760 37.74659 3706 ft 189 kts 198°
2026-05-05 20:01 56.02571 37.73799 3567 ft 178 kts 212°
2026-05-05 20:01 56.01747 37.72328 3301 ft 165 kts 244°
2026-05-05 20:02 56.01383 37.70442 3041 ft 160 kts 257°
2026-05-05 20:02 56.01123 37.68520 2739 ft 159 kts 257°
2026-05-05 20:02 56.00858 37.66641 2586 ft 147 kts 257°
2026-05-05 20:02 56.00613 37.64945 2292 ft 141 kts 256°
2026-05-05 20:03 56.00367 37.63264 2016 ft 135 kts 256°
2026-05-05 20:03 56.00124 37.61613 2005 ft 141 kts 256°
2026-05-05 20:03 55.99879 37.59943 1999 ft 140 kts 256°
2026-05-05 20:03 55.99631 37.58261 1997 ft 140 kts 256°
2026-05-05 20:04 55.99381 37.56563 1996 ft 140 kts 256°
2026-05-05 20:04 55.99130 37.54859 1851 ft 141 kts 256°
2026-05-05 20:04 55.98883 37.53199 1666 ft 140 kts 256°
2026-05-05 20:04 55.98637 37.51541 1484 ft 139 kts 256°
2026-05-05 20:05 55.98582 37.51164 1443 ft 139 kts 256°
2026-05-05 20:05 55.98425 37.50110 1325 ft 138 kts 256°
2026-05-05 20:05 55.98195 37.48563 1153 ft 138 kts 256°
2026-05-05 20:05 55.97992 37.47182 998 ft 138 kts 256°
2026-05-05 20:06 55.97797 37.45880 856 ft 137 kts 256°
2026-05-05 20:06 55.97551 37.44232 690 ft 136 kts 256°
2026-05-05 20:06 55.97324 37.42691 645 ft 110 kts 256°
2026-05-05 20:06 55.97168 37.41633 644 ft 65 kts 256°
2026-05-05 20:07 55.97091 37.41107 644 ft 21 kts 256°
2026-05-05 20:07 55.97069 37.40956 644 ft 14 kts 256°
2026-05-05 20:07 55.97039 37.40749 644 ft 21 kts 256°
2026-05-05 20:07 55.96993 37.40436 644 ft 30 kts 255°
2026-05-05 20:08 55.96948 37.40168 644 ft 14 kts 261°
2026-05-05 20:08 55.97006 37.40036 644 ft 15 kts 339°
2026-05-05 20:08 55.97115 37.39981 644 ft 16 kts 346°
2026-05-05 20:08 55.97227 37.39929 644 ft 17 kts 346°
2026-05-05 20:09 55.97344 37.39937 644 ft 17 kts 57°
2026-05-05 20:09 55.97380 37.40144 644 ft 18 kts 76°
2026-05-05 20:09 55.97413 37.40375 644 ft 19 kts 76°
2026-05-05 20:09 55.97448 37.40612 644 ft 20 kts 76°
2026-05-05 20:10 55.97485 37.40862 644 ft 21 kts 76°
2026-05-05 20:10 55.97527 37.41096 644 ft 10 kts 53°
2026-05-05 20:10 55.97598 37.41118 644 ft 11 kts 337°
2026-05-05 20:10 55.97646 37.40990 644 ft 13 kts 311°
2026-05-05 20:11 55.97717 37.40926 644 ft 8 kts 347°
2026-05-05 20:11 55.97786 37.40894 644 ft 11 kts 344°
2026-05-05 20:11 55.97863 37.40884 644 ft 11 kts 42°
2026-05-05 20:11 55.97879 37.40960 644 ft 3 kts 77°
2026-05-05 20:12 55.97882 37.40982 644 ft 0 kts 77°